Dewpoint
56 56 56 57 57 57 58 57 57 58 58 58 58 59 58 57 58 58 59 58 58 58 59 60 59 59 59 59 59 58 53 31 26 26 25 30 45 54 57 59 60 60 52 38 34 31 20 21 21 23 21 22 27 28 28 26 29 34 19 18 16 19 19 20 20 23 26 23 26 30 29 29 27 29 30 27 27 30 32 31 27 26 26 26 27 31 31 33
56 56 56 57 57 57 58 58 58 58 59 59 58 58 58 58 58 58 59 58 58 58 59 60 59 58 59 60 60 58 44 37 25 25 28 46 55 56 57 58 58 54 48 37 22 22 20 20 21 25 20 21 27 24 28 25 26 27 19 20 12 19 22 20 22 24 20 21 29 30 27 26 25 25 26 25 26 29 29 29 29 27 26 26 27 29 30 30
56 55 56 56 57 57 57 58 58 58 59 59 58 58 59 59 59 59 59 59 59 59 60 60 60 59 59 59 59 55 35 28 19 22 25 55 55 56 57 58 55 50 44 24 24 25 21 20 20 20 20 19 22 24 29 25 29 23 26 15 17 22 21 21 23 26 29 28 29 30 28 27 26 25 27 26 24 29 28 26 27 27 26 25 26 28 28 29
55 56 56 57 57 58 58 58 58 58 59 59 59 60 60 60 59 58 59 59 60 60 60 60 60 60 59 58 57 53 31 31 17 23 26 54 54 56 55 56 58 49 41 28 31 26 31 26 23 22 25 23 28 24 25 27 27 24 24 18 20 19 17 19 23 25 28 31 27 27 30 27 27 26 27 26 25 26 27 28 29 28 24 24 25 28 30 26
55 56 56 57 57 57 58 58 58 59 59 59 59 60 60 59 59 59 59 60 60 60 60 59 60 60 57 53 49 39 28 16 20 26 35 53 53 54 54 51 56 48 37 28 29 26 25 19 21 26 30 20 29 25 23 25 28 28 25 25 20 22 20 25 26 27 30 30 27 26 26 26 29 26 28 27 24 21 26 29 32 30 26 24 26 29 30 28
55 56 56 56 57 57 58 58 59 59 59 59 60 60 59 59 59 60 60 60 60 61 60 60 60 59 55 50 43 36 26 11 29 25 48 52 52 52 53 47 46 42 36 24 17 17 13 17 16 29 23 24 24 22 23 25 25 18 23 23 26 24 23 27 27 29 29 28 27 29 25 27 25 26 27 29 27 25 30 34 36 34 33 33 31 29 30 29
55 55 56 56 57 57 57 58 58 59 59 59 59 60 59 59 59 60 60 60 61 61 61 60 59 56 56 49 46 31 25 24 25 30 45 49 51 52 49 45 49 38 32 18 16 18 19 18 24 30 26 27 23 24 26 27 27 26 21 25 25 27 27 28 28 29 29 27 27 26 29 25 28 27 29 27 28 31 35 33 35 37 39 38 34 31 30 30
55 55 56 56 56 57 57 58 58 59 59 59 59 59 59 59 60 60 60 60 61 62 61 59 60 58 52 39 40 29 26 24 26 36 43 47 40 44 51 43 40 38 29 24 20 17 20 16 17 31 25 25 26 25 27 25 30 28 27 27 25 26 27 27 28 28 27 27 26 26 24 23 25 24 26 25 24 27 29 34 37 37 37 35 35 33 33 31
55 56 56 56 56 56 57 57 58 58 58 58 58 59 60 60 60 60 60 60 60 61 60 59 57 55 54 43 34 23 24 25 26 30 30 32 34 42 44 29 39 28 27 27 23 19 19 26 28 29 23 26 23 28 30 28 22 31 29 27 25 26 27 27 27 26 26 25 25 25 24 25 24 27 23 23 24 25 25 26 29 33 30 30 32 32 33 32
55 56 56 56 56 56 57 57 57 57 57 59 59 60 61 60 60 60 59 59 60 60 60 58 57 53 49 37 36 21 25 27 28 31 30 31 34 41 37 36 31 27 26 25 25 23 18 19 20 21 25 27 28 30 31 32 25 31 30 29 25 26 26 26 26 25 25 25 24 24 23 24 24 24 20 23 27 28 26 27 27 29 25 25 29 33 33 33
55 56 56 56 56 57 57 56 56 56 57 59 59 60 60 60 60 60 60 60 59 58 56 55 57 49 34 29 27 23 29 29 30 30 30 31 35 34 31 34 30 24 23 23 24 25 22 20 23 27 34 26 30 29 29 30 30 28 27 29 28 24 25 25 25 24 24 23 24 24 22 22 23 26 22 20 27 27 27 27 26 27 26 24 24 26 28 31
55 56 56 56 56 57 57 57 57 58 58 59 60 60 61 60 59 59 59 58 57 58 57 53 49 31 28 28 26 26 29 28 32 30 30 31 31 34 37 35 30 26 25 24 27 27 27 31 32 37 24 31 26 28 29 30 28 27 30 25 26 28 24 24 24 24 25 22 24 24 23 25 26 24 23 23 26 26 26 26 26 26 26 25 25 24 26 27
55 55 55 56 56 57 57 57 57 58 59 60 60 60 59 59 58 58 57 53 55 54 54 54 49 44 41 29 27 27 32 30 32 31 31 32 30 31 32 33 31 30 29 26 27 31 34 34 32 31 35 30 31 26 30 29 28 31 26 28 24 24 23 23 23 24 23 23 26 27 19 15 24 23 21 25 25 26 26 24 23 25 25 25 26 26 26 26
55 55 55 56 56 57 57 56 57 58 59 59 59 58 56 56 56 56 58 55 56 56 54 52 41 39 34 28 26 35 37 35 31 29 31 31 27 28 29 30 31 30 31 30 31 34 35 33 33 34 37 33 28 33 28 27 33 23 27 28 24 14 21 23 23 23 23 25 25 27 23 16 16 20 23 26 25 24 23 22 22 24 25 25 27 26 25 25
54 55 55 56 57 56 57 57 58 58 58 58 57 56 55 55 56 56 56 54 56 57 54 52 44 39 30 28 31 40 48 38 28 28 32 31 28 25 27 29 29 30 31 30 28 30 31 36 34 30 27 33 33 33 27 28 27 26 29 20 20 18 20 21 26 23 21 23 25 28 24 18 17 19 26 25 26 24 23 22 22 23 25 25 26 25 25 25
54 55 55 56 56 56 57 57 57 58 57 56 55 55 55 54 54 55 55 54 55 56 56 46 44 32 29 27 25 36 29 26 26 27 31 32 30 25 28 28 29 28 28 28 32 31 33 31 30 30 30 32 30 23 24 21 21 25 23 21 21 19 19 23 23 25 26 24 25 26 20 24 17 21 24 25 25 25 22 22 22 22 24 25 25 26 26 27
54 54 55 56 55 56 57 56 57 53 53 54 54 55 55 55 55 55 53 49 41 46 29 32 38 42 27 30 27 25 25 26 30 27 28 33 31 30 29 27 25 26 28 28 28 32 32 28 34 33 35 26 28 28 22 17 15 17 19 18 19 22 16 15 27 28 28 26 24 26 24 22 20 20 22 24 26 25 23 22 23 25 25 26 27 26 25 25
54 54 55 55 55 56 57 57 57 51 49 50 48 46 39 49 51 47 45 48 50 46 41 38 35 35 26 26 23 24 27 26 29 27 29 31 32 29 28 25 27 27 28 24 24 25 29 26 34 24 25 29 28 27 23 18 22 15 19 19 19 18 18 19 21 28 25 30 25 23 24 23 22 22 22 22 26 26 24 24 24 24 24 25 27 27 26 26
54 54 55 55 55 56 57 57 57 57 55 50 51 55 52 51 54 34 41 38 40 30 28 30 35 24 25 25 28 27 26 29 32 28 26 29 31 30 31 31 29 25 26 25 25 29 32 28 30 25 23 23 24 25 26 24 21 22 22 20 21 22 23 18 27 29 29 26 29 25 24 22 21 21 21 22 24 25 24 25 25 24 25 25 26 27 27 28
53 54 55 55 55 56 57 57 57 56 50 50 56 51 48 36 33 29 34 37 33 34 38 31 34 32 24 24 24 26 28 31 25 24 27 30 31 27 24 27 33 32 33 21 31 26 35 27 24 25 24 25 27 26 27 26 26 25 23 21 21 20 20 25 27 29 30 28 23 24 25 24 23 23 23 23 25 25 25 25 25 26 25 26 26 26 29 28
54 54 54 54 56 56 57 56 56 54 52 51 51 38 29 35 30 24 30 32 33 37 34 32 34 26 22 24 26 27 24 23 23 23 26 29 31 26 23 31 31 24 27 31 31 32 33 26 26 24 25 27 26 26 26 27 26 26 21 24 21 21 20 26 26 27 30 22 23 25 23 23 23 23 23 23 24 23 23 24 24 24 25 26 29 30 31 30
53 54 54 54 55 56 56 55 54 54 52 50 49 39 35 43 40 41 37 23 30 37 32 27 29 24 25 26 27 28 27 21 20 21 25 30 25 21 26 29 29 25 29 30 29 28 26 23 24 27 26 27 27 27 27 29 26 22 21 21 22 20 22 25 28 26 27 24 21 25 24 22 21 20 20 21 21 23 23 23 23 24 26 28 28 30 31 31
53 53 54 54 55 56 56 56 52 52 50 46 41 38 35 42 44 44 41 26 25 30 33 34 28 26 22 26 27 29 20 22 25 20 24 31 31 29 34 24 27 28 30 32 18 18 22 23 26 27 26 25 25 27 26 26 26 21 21 20 17 22 22 16 26 25 26 26 24 23 23 21 21 20 21 21 20 22 28 29 31 32 26 26 25 28 31 30
53 54 54 55 55 56 57 54 52 52 44 46 42 39 41 45 40 37 39 27 28 29 31 28 28 30 26 24 26 26 20 24 27 19 25 32 30 33 32 31 26 28 23 30 31 25 19 26 26 27 25 25 26 26 27 23 20 22 22 25 24 21 21 23 22 26 27 25 23 24 21 19 23 19 18 24 25 26 26 27 28 29 32 30 32 32 32 30
54 54 54 55 56 53 54 49 46 42 44 45 41 40 44 45 44 39 33 28 31 22 28 31 32 21 24 29 34 27 27 31 26 25 28 29 33 35 29 33 30 18 24 27 27 27 24 26 26 25 25 25 26 27 26 22 21 24 22 21 19 19 21 23 24 22 19 16 22 20 11 5 18 17 15 23 23 22 27 28 27 27 29 32 29 30 32 34
54 54 54 55 55 53 55 41 40 42 44 42 39 40 43 43 43 44 37 31 20 20 33 23 24 20 25 27 26 33 35 26 24 24 35 27 33 32 33 26 31 20 26 24 20 22 23 26 27 26 25 26 25 23 23 23 21 20 26 22 22 22 22 22 23 21 16 15 25 24 13 12 12 13 11 22 24 22 26 27 24 23 25 30 31 31 30 31
53 54 54 53 51 52 35 32 43 44 32 37 42 42 43 43 42 42 25 25 17 21 22 25 29 21 31 27 30 36 17 19 24 28 24 28 34 35 30 22 29 31 32 28 28 23 27 25 22 23 26 24 22 21 23 22 22 20 22 22 23 23 22 22 22 21 19 21 25 23 18 13 13 13 24 23 23 23 23 25 28 28 27 26 27 30 31 33
53 52 53 53 51 45 47 40 40 44 42 42 42 41 41 42 45 41 31 15 5 34 21 25 21 33 30 31 28 26 22 30 26 25 31 33 34 34 32 24 24 28 29 25 10 19 21 21 23 21 20 20 18 21 24 23 25 21 24 23 23 23 23 23 23 21 20 16 14 19 23 12 15 17 19 22 18 13 18 16 16 17 16 25 30 32 32 33
53 53 53 51 46 47 46 44 45 43 38 42 39 42 42 42 40 35 28 9 11 21 37 21 31 25 28 33 32 32 31 32 22 25 34 36 31 32 25 30 28 25 28 28 18 20 20 23 23 22 20 18 23 21 24 24 22 25 23 23 23 22 22 22 21 21 20 15 13 12 17 13 5 5 9 21 16 17 27 21 20 24 26 28 32 32 32 32
53 51 49 48 47 49 42 45 46 44 41 41 42 43 44 37 30 22 18 2 15 16 23 26 27 22 28 31 27 30 25 24 30 29 33 24 27 30 29 33 26 22 24 26 24 22 22 31 29 26 21 22 23 24 25 24 25 25 25 24 22 21 20 18 18 19 21 12 13 17 18 14 5 3 6 6 22 25 22 26 22 27 28 26 30 31 34 34
53 53 52 51 47 41 41 33 38 41 41 43 43 41 38 33 27 19 8 11 26 25 30 24 18 28 24 23 16 25 23 22 27 28 27 32 25 33 32 23 32 20 24 28 24 17 22 27 23 27 30 26 25 25 27 26 26 26 23 19 18 17 15 16 17 17 10 3 14 16 17 17 7 4 16 22 31 30 25 27 24 23 24 27 30 32 33 33
50 50 49 46 44 42 39 40 40 42 42 42 47 44 20 30 26 11 11 28 13 14 12 16 20 20 16 21 17 16 18 21 19 18 15 18 16 20 20 17 24 12 13 17 11 26 23 23 21 27 30 25 22 22 25 24 25 26 24 23 14 8 12 -2 7 7 6 3 16 17 17 8 12 9 16 22 21 26 31 29 27 27 26 26 29 31 35 32
51 50 49 46 46 46 43 42 42 44 42 42 42 28 31 25 9 16 17 20 15 13 10 21 17 18 17 17 12 17 23 13 18 18 22 16 16 18 21 19 19 9 -2 19 16 13 10 20 16 21 21 25 23 17 13 15 22 22 15 19 13 4 6 6 3 7 6 7 13 13 17 10 10 12 20 22 22 24 27 33 32 30 28 28 30 34 32 35
49 46 45 44 45 44 44 43 43 42 39 44 42 36 30 17 6 24 16 19 14 16 20 15 16 12 14 10 12 17 13 17 17 15 16 13 14 11 16 18 20 17 24 15 3 12 6 -2 16 18 15 24 23 21 20 15 17 19 23 18 17 12 10 6 3 3 8 9 11 14 16 13 14 8 17 20 23 27 24 23 24 26 28 29 30 30 31 33
49 48 47 45 47 45 44 43 42 41 43 37 25 36 17 12 13 17 18 20 13 15 13 16 10 9 7 12 12 18 15 20 17 15 15 11 8 15 11 13 20 19 20 12 18 18 7 4 8 19 21 24 22 25 25 21 18 21 22 20 19 17 22 8 13 12 15 15 16 16 14 20 17 15 21 19 19 20 21 22 26 29 32 31 32 34 35 35
44 42 43 42 43 42 45 43 42 42 49 23 30 22 14 18 15 15 20 16 16 15 16 12 12 10 11 15 14 15 19 18 20 15 17 15 14 10 15 17 20 21 20 12 16 10 7 -4 16 22 25 24 24 25 24 21 12 18 19 16 20 22 16 17 16 14 15 15 13 21 18 14 15 13 16 22 20 21 24 24 23 26 26 26 28 32 31 31
40 46 34 42 40 41 44 43 41 43 41 28 31 17 19 25 15 11 26 20 20 18 13 16 12 13 18 16 12 20 20 16 22 13 3 14 11 15 16 16 22 22 21 10 17 21 10 6 12 14 15 24 25 25 25 26 23 22 16 17 24 23 21 22 11 13 13 9 9 12 15 16 12 8 20 16 14 15 18 18 20 21 24 20 25 28 27 28
46 42 40 39 38 42 43 42 42 41 31 26 25 22 22 20 23 24 25 21 22 18 17 11 16 13 17 16 12 19 22 17 8 13 6 12 8 18 17 16 20 22 23 26 15 22 15 14 9 18 20 23 23 24 23 26 25 19 20 26 20 17 12 15 14 8 6 6 6 7 18 18 14 16 17 17 5 1 2 7 15 9 8 13 18 23 26 27
42 44 31 36 41 41 44 43 43 36 23 28 24 24 20 21 25 25 25 24 23 20 17 14 17 16 12 18 17 15 17 15 16 10 4 7 10 16 17 18 16 24 24 21 21 16 18 13 8 16 21 20 13 18 13 21 26 28 27 24 21 14 14 9 12 14 8 7 9 11 17 4 22 20 18 8 5 2 1 5 6 11 15 16 23 25 25 27
46 31 16 39 38 43 43 39 34 25 22 24 23 21 21 20 25 26 27 27 22 18 20 20 15 20 13 14 15 18 16 16 14 10 9 9 13 17 16 22 18 20 23 23 20 21 17 8 8 7 14 13 10 13 8 15 19 23 21 23 23 23 21 19 16 13 12 9 7 7 7 9 5 14 13 8 7 7 9 15 16 17 17 18 21 23 24 25
32 33 23 37 39 42 42 34 24 26 26 22 22 21 26 20 23 25 27 28 26 26 21 15 14 25 10 15 15 14 18 17 16 20 12 11 10 8 19 23 22 21 22 20 21 22 23 10 11 9 10 8 7 18 19 17 18 16 21 18 19 18 16 12 9 21 17 12 11 8 9 10 9 16 12 10 10 10 15 20 18 19 19 21 21 23 23 26
27 23 18 39 40 42 38 24 27 25 28 24 17 23 28 33 24 24 26 27 24 26 25 22 22 17 13 9 10 15 16 21 15 13 13 15 10 9 16 22 25 25 21 25 25 23 20 15 13 15 11 8 14 14 21 21 20 18 19 21 22 21 20 14 9 12 16 18 18 14 12 12 15 13 15 13 13 17 19 22 20 19 19 20 20 22 24 25
16 12 34 37 40 41 26 25 29 29 24 25 28 25 27 24 22 24 24 25 23 24 23 22 21 13 15 17 18 18 18 15 14 16 11 13 13 14 24 26 25 25 22 25 23 25 26 19 15 13 11 12 17 19 19 21 21 18 19 21 19 18 23 18 16 16 13 17 13 14 13 13 10 20 17 16 17 19 22 22 22 18 18 18 19 20 20 23
19 14 29 38 38 34 35 20 23 26 25 22 23 21 25 27 25 23 22 24 27 25 19 21 21 20 21 21 18 13 16 15 11 12 14 17 19 28 27 28 28 26 24 26 24 22 17 17 11 11 12 8 6 3 9 17 18 18 17 20 22 22 22 16 19 15 14 17 13 10 9 11 12 9 12 11 10 12 13 14 15 16 16 17 17 21 23 22
22 26 26 30 31 32 21 19 28 25 26 25 19 17 18 22 27 26 25 25 27 25 19 19 21 20 20 24 23 21 22 12 18 13 16 18 23 25 24 24 25 29 30 30 30 31 18 15 12 8 7 6 6 5 5 7 13 10 14 19 22 22 23 19 13 15 14 16 15 14 12 12 10 8 9 11 12 12 13 14 15 17 17 18 21 22 23 20
22 20 22 17 29 22 24 27 22 23 22 21 24 17 17 18 19 27 25 25 26 26 26 22 24 25 23 18 14 18 18 21 14 20 23 23 19 23 24 25 24 28 30 30 29 26 23 20 14 13 12 9 14 16 10 13 12 16 20 21 22 22 21 20 18 14 12 15 15 14 16 13 12 12 11 11 11 13 12 13 13 16 19 22 23 25 22 19
23 25 25 28 33 21 25 22 24 22 23 20 19 21 20 17 17 18 27 23 26 27 27 25 23 16 15 14 13 16 22 21 20 21 22 21 26 17 22 23 26 29 29 30 26 23 20 19 21 17 20 19 15 12 13 15 14 13 18 22 24 22 22 22 17 15 17 15 11 13 15 21 14 9 10 12 13 12 13 13 16 18 20 22 23 20 23 18
24 18 21 20 17 20 28 22 22 19 22 24 21 18 20 19 14 20 16 25 27 28 17 16 16 20 19 16 13 15 13 14 17 18 21 19 21 22 19 27 28 28 29 28 28 25 22 18 21 16 19 20 17 15 15 14 14 15 18 19 21 22 22 21 20 20 16 15 12 13 11 15 13 12 14 14 14 14 14 17 19 20 21 21 19 18 18 17
21 25 24 25 25 22 21 16 27 20 19 24 26 18 20 18 19 15 16 16 13 16 19 19 15 17 22 22 18 24 15 17 22 21 18 20 16 21 24 20 28 26 26 26 26 18 21 19 19 16 19 17 16 15 15 15 15 17 22 18 17 18 23 24 20 19 18 18 17 16 16 16 16 16 17 17 19 18 18 20 19 17 19 21 19 18 16 17
23 22 20 22 26 27 25 25 24 19 22 22 23 15 17 18 19 20 20 15 17 13 20 18 19 21 25 24 18 19 20 16 17 22 23 21 24 24 22 22 24 25 24 24 22 27 20 15 21 19 16 19 17 16 16 15 15 14 12 13 13 13 13 17 21 19 20 17 16 17 17 19 20 20 20 20 18 20 21 14 16 18 20 19 19 17 17 17
25 28 29 20 21 19 28 23 17 16 21 21 18 17 23 20 20 21 21 21 15 20 21 21 22 22 26 25 22 22 22 22 22 22 21 21 23 21 21 22 21 23 25 23 22 23 17 17 13 14 16 16 12 12 10 13 13 16 13 13 12 11 18 15 19 20 20 22 20 17 18 19 18 18 19 18 17 15 13 16 18 20 20 20 19 18 18 18
31 30 29 26 15 21 17 22 17 18 20 16 22 22 17 20 21 20 24 23 26 28 24 22 24 24 22 21 21 20 24 26 26 27 27 27 26 26 26 23 23 25 23 22 18 19 17 16 16 15 15 15 9 13 13 12 13 15 16 10 9 4 7 9 11 15 17 15 16 14 15 8 8 17 16 16 16 15 15 18 19 20 20 20 19 19 19 20